Weather History for Starkville, MS

Change the Weather History Date:

Sunday, September 2, 2012

  Actual Average Record
Temperature  
Mean Temperature 80 °F -  
Max Temperature 89 °F 88 °F 95 °F (2011)
Min Temperature 71 °F 67 °F 68 °F (2013)
Cooling Degree Days 15    
Growing Degree Days 30 (Base 50)    
Moisture  
Dew Point 72 °F    
Average Humidity 80    
Maximum Humidity 94    
Minimum Humidity 59    
Precipitation  
Precipitation 0.00 in - - ()
Sea Level Pressure  
Sea Level Pressure 29.97 in    
Wind  
Wind Speed 4 mph (SW)    
Max Wind Speed 14 mph    
Max Gust Speed 18 mph    
Visibility 10 miles    
Events Thunderstorm    
Averages and records for this station are not official NWS values.
T = Trace of Precipitation, MM = Missing Value Source: NWS Daily Summary

Daily Weather History Graph

Daily Weather History Graph

Search for Another Location

Airport:

Trip Planner

Search our weather history database for the weather conditions in past years. The results will help you decide how hot, cold, wet, or windy it might be!

Date:

Astronomy

Sep. 02, 2012 Rise Set
Actual Time 6:30 AM CDT 7:18 PM CDT
Civil Twilight 6:05 AM CDT 7:43 PM CDT
Nautical Twilight 5:35 AM CDT 8:13 PM CDT
Astronomical Twilight 5:04 AM CDT 8:44 PM CDT
Moon 8:17 PM CDT (9/2) 8:28 AM CDT (9/2)
Length of Visible Light 13h 38m
Length of Day
12h 48m
Waning Gibbous, 95% of the Moon is Illuminated
Sep 2
Waning Gibbous
Sep 8
Last Quarter
Sep 15
New
Sep 22
First Quarter
Sep 29
Full

Hourly Weather History & Observations

Time (CDT) Temp. Heat Index Dew Point Humidity Pressure Visibility Wind Dir Wind Speed Gust Speed Precip Events Conditions
12:15 AM 73.4 °F - 69.8 °F 88% 30.03 in 10.0 mi Calm Calm - N/A   Clear
12:35 AM 71.6 °F - 69.8 °F 94% 30.03 in 10.0 mi Calm Calm - N/A   Clear
12:55 AM 71.6 °F - 69.8 °F 94% 30.03 in 10.0 mi Calm Calm - N/A   Clear
1:15 AM 71.6 °F - 69.8 °F 94% 30.02 in 10.0 mi Calm Calm - N/A   Clear
1:35 AM 71.6 °F - 69.8 °F 94% 30.02 in 10.0 mi Calm Calm - N/A   Clear
2:15 AM 71.6 °F - 69.8 °F 94% 30.01 in 10.0 mi Calm Calm - N/A   Clear
2:55 AM 71.6 °F - 69.8 °F 94% 30.01 in 10.0 mi Calm Calm - N/A   Clear
3:15 AM 71.6 °F - 69.8 °F 94% 30.01 in 10.0 mi Calm Calm - N/A   Clear
3:35 AM 71.6 °F - 69.8 °F 94% 30.01 in 10.0 mi Calm Calm - N/A   Clear
3:55 AM 71.6 °F - 69.8 °F 94% 30.00 in 10.0 mi Calm Calm - N/A   Clear
4:15 AM 71.6 °F - 69.8 °F 94% 29.99 in 10.0 mi SSW 3.5 mph - N/A   Clear
4:35 AM 71.6 °F - 69.8 °F 94% 29.99 in 10.0 mi South 4.6 mph - N/A   Clear
4:55 AM 71.6 °F - 69.8 °F 94% 29.99 in 10.0 mi SSW 6.9 mph - N/A   Clear
5:15 AM 71.6 °F - 69.8 °F 94% 29.99 in 10.0 mi Calm Calm - N/A   Clear
5:35 AM 71.6 °F - 69.8 °F 94% 29.99 in 10.0 mi SSW 3.5 mph - N/A   Scattered Clouds
5:55 AM 71.6 °F - 69.8 °F 94% 30.00 in 10.0 mi SSW 4.6 mph - N/A   Mostly Cloudy
6:15 AM 71.6 °F - 69.8 °F 94% 30.00 in 10.0 mi SSW 6.9 mph - N/A   Overcast
6:35 AM 71.6 °F - 69.8 °F 94% 30.00 in 10.0 mi SSW 6.9 mph - N/A   Overcast
6:55 AM 71.6 °F - 69.8 °F 94% 30.01 in 10.0 mi SW 5.8 mph - N/A   Overcast
7:15 AM 73.4 °F - 69.8 °F 88% 30.02 in 7.0 mi SW 4.6 mph - N/A   Overcast
7:35 AM 73.4 °F - 71.6 °F 94% 30.02 in 7.0 mi SW 4.6 mph - N/A   Mostly Cloudy
7:55 AM 73.4 °F - 71.6 °F 94% 30.02 in 7.0 mi SW 9.2 mph - N/A   Scattered Clouds
8:15 AM 77.0 °F - 71.6 °F 83% 30.02 in 10.0 mi SSW 5.8 mph - N/A   Scattered Clouds
8:35 AM 77.0 °F - 71.6 °F 83% 30.03 in 10.0 mi SW 5.8 mph - N/A   Scattered Clouds
8:55 AM 77.0 °F - 71.6 °F 83% 30.03 in 10.0 mi SW 5.8 mph - N/A   Mostly Cloudy
9:15 AM 78.8 °F - 71.6 °F 78% 30.03 in 10.0 mi SSW 10.4 mph 16.1 mph N/A   Overcast
9:35 AM 80.6 °F 84.6 °F 71.6 °F 74% 30.03 in 10.0 mi SW 9.2 mph 18.4 mph N/A   Overcast
9:55 AM 78.8 °F - 71.6 °F 78% 30.03 in 10.0 mi SW 6.9 mph - N/A   Mostly Cloudy
10:15 AM 80.6 °F 85.4 °F 73.4 °F 79% 30.03 in 10.0 mi SW 11.5 mph 18.4 mph N/A   Mostly Cloudy
10:35 AM 80.6 °F 85.4 °F 73.4 °F 79% 30.03 in 10.0 mi SW 8.1 mph - N/A   Overcast
10:55 AM 80.6 °F 85.4 °F 73.4 °F 79% 30.03 in 10.0 mi SW 6.9 mph 16.1 mph N/A   Mostly Cloudy
11:15 AM 82.4 °F 88.2 °F 73.4 °F 74% 30.02 in 10.0 mi WSW 5.8 mph 18.4 mph N/A   Overcast
11:55 AM 84.2 °F 90.9 °F 73.4 °F 70% 30.01 in 10.0 mi SW 12.7 mph 18.4 mph N/A   Mostly Cloudy
12:15 PM 86.0 °F 95.1 °F 75.2 °F 70% 30.01 in 10.0 mi SW 8.1 mph - N/A   Mostly Cloudy
12:35 PM 86.0 °F 93.4 °F 73.4 °F 66% 30.00 in 10.0 mi WSW 8.1 mph - N/A   Scattered Clouds
12:55 PM 86.0 °F 93.4 °F 73.4 °F 66% 29.99 in 10.0 mi SW 9.2 mph 17.3 mph N/A   Scattered Clouds
1:15 PM 86.0 °F 93.4 °F 73.4 °F 66% 29.98 in 10.0 mi SW 8.1 mph 16.1 mph N/A   Mostly Cloudy
1:35 PM 86.0 °F 93.4 °F 73.4 °F 66% 29.98 in 10.0 mi WSW 9.2 mph - N/A   Mostly Cloudy
1:55 PM 87.8 °F 95.6 °F 73.4 °F 62% 29.97 in 10.0 mi WSW 9.2 mph 16.1 mph N/A   Scattered Clouds
2:15 PM 87.8 °F 97.6 °F 75.2 °F 66% 29.96 in 10.0 mi WSW 8.1 mph 16.1 mph N/A   Mostly Cloudy
2:35 PM 87.8 °F 95.6 °F 73.4 °F 62% 29.95 in 10.0 mi SW 11.5 mph 17.3 mph N/A   Mostly Cloudy
2:55 PM 87.8 °F 95.6 °F 73.4 °F 62% 29.94 in 10.0 mi SSW 9.2 mph 16.1 mph N/A   Scattered Clouds
3:15 PM 89.6 °F 98.2 °F 73.4 °F 59% 29.93 in 10.0 mi SW 13.8 mph 18.4 mph N/A   Scattered Clouds
3:55 PM 89.6 °F 99.8 °F 75.2 °F 62% 29.92 in 10.0 mi WSW 8.1 mph - N/A   Clear
4:15 PM 89.6 °F 98.2 °F 73.4 °F 59% 29.91 in 10.0 mi SW 8.1 mph - N/A   Clear
4:35 PM 89.6 °F 99.8 °F 75.2 °F 62% 29.91 in 10.0 mi SW 9.2 mph - N/A   Scattered Clouds
5:15 PM 87.8 °F 97.6 °F 75.2 °F 66% 29.90 in 10.0 mi SW 9.2 mph - N/A   Clear
5:35 PM 87.8 °F 97.6 °F 75.2 °F 66% 29.90 in 10.0 mi SSW 6.9 mph - N/A   Clear
5:55 PM 87.8 °F 97.6 °F 75.2 °F 66% 29.89 in 10.0 mi SW 8.1 mph - N/A   Clear
6:15 PM 86.0 °F 95.1 °F 75.2 °F 70% 29.90 in 10.0 mi SSW 8.1 mph - N/A   Clear
6:35 PM 86.0 °F 93.4 °F 73.4 °F 66% 29.90 in 10.0 mi SSW 6.9 mph - N/A   Clear
6:55 PM 82.4 °F 88.2 °F 73.4 °F 74% 29.90 in 10.0 mi SSW 6.9 mph - N/A   Clear
7:15 PM 82.4 °F 88.2 °F 73.4 °F 74% 29.89 in 10.0 mi SSW 3.5 mph - N/A   Clear
7:35 PM 80.6 °F 85.4 °F 73.4 °F 79% 29.88 in 10.0 mi SSW 5.8 mph - N/A   Clear
7:55 PM 80.6 °F 85.4 °F 73.4 °F 79% 29.89 in 10.0 mi SSW 4.6 mph - N/A   Clear
8:15 PM 80.6 °F 85.4 °F 73.4 °F 79% 29.89 in 10.0 mi SSW 4.6 mph - N/A   Clear
8:35 PM 80.6 °F 85.4 °F 73.4 °F 79% 29.89 in 10.0 mi SSW 5.8 mph - N/A   Clear
8:55 PM 80.6 °F 85.4 °F 73.4 °F 79% 29.90 in 10.0 mi SSW 5.8 mph - N/A   Clear
9:15 PM 80.6 °F 85.4 °F 73.4 °F 79% 29.90 in 10.0 mi SSW 4.6 mph - N/A   Clear
9:35 PM 80.6 °F 85.4 °F 73.4 °F 79% 29.92 in 10.0 mi SSW 4.6 mph - N/A   Clear
9:55 PM 78.8 °F - 73.4 °F 83% 29.93 in 10.0 mi SSW 3.5 mph - N/A   Clear
10:15 PM 78.8 °F - 73.4 °F 83% 29.92 in 10.0 mi Calm Calm - N/A   Clear
10:35 PM 78.8 °F - 73.4 °F 83% 29.92 in 10.0 mi SSW 3.5 mph - N/A   Clear
10:55 PM 78.8 °F - 73.4 °F 83% 29.92 in 10.0 mi SW 4.6 mph - N/A   Clear
11:35 PM 78.8 °F - 73.4 °F 83% 29.94 in 10.0 mi NNE 11.5 mph - N/A Thunderstorm Scattered Clouds
11:55 PM 78.8 °F - 71.6 °F 78% 29.96 in 10.0 mi NNE 5.8 mph - N/A   Mostly Cloudy